Tracking 29489 objects as of 9-Sep-2024
HD Live streaming from Space Station
objects crossing your sky now

SES 22

Track SES 22 now!


NORAD ID: 52933
Int'l Code: 2022-071A
Perigee: 35,787.2 km
Apogee: 35,801.1 km
Inclination: 0.1 °
Period: 1,436.1 minutes
Semi major axis: 42165 km
RCS: Unknown
Launch date: June 29, 2022
Source: SOCIETE EUROPEENNE DES SATELLITES (SES)
Launch site: AIR FORCE EASTERN TEST RANGE (AFETR)
Your satellite tracking list
Your tracking list is empty




NASA's NSSDC Master Catalog

Two Line Element Set (TLE):
1 52933U 22071A   24249.85433354  .00000106  00000-0  00000-0 0  9997
2 52933   0.0519 282.4620 0001648 292.4583 299.0789  1.00270467  1007
Source of the keplerian elements: AFSPC